Regional Weather Roundup
Issued by NWS

Home | Current Version | Previous Version | Text Only | Print | Product List | Glossary Off
Versions: 1 2 3 4 5 6 7 8 9 10 11 12 13 14 15 16 17 18 19 20 21 22 23 24 25 26 27 28 29 30 31 32 33 34 35 36 37 38 39 40 41 42 43 44 45 46 47 48 49 50

000
ASUS43 KTOP 190359
RWRKS

WEATHER ROUNDUP FOR KANSAS
NATIONAL WEATHER SERVICE GOODLAND KS
1100 PM CDT WED APR 18 2018

NOTE:  "FAIR" INDICATES FEW OR NO CLOUDS BELOW 12,000 FEET WITH NO
SIGNIFICANT WEATHER AND/OR OBSTRUCTIONS TO VISIBILITY.

KSZ001>006-013>018-027>032-041>047-190500-
NORTHWEST KANSAS

CITY           SKY/WX    TMP DP  RH WIND       PRES   REMARKS
GOODLAND       PTCLDY    37  19  48 NW5       30.27R
HAYS           CLEAR     43  28  55 NE5       30.29R
HILL CITY      CLEAR     37  29  72 NE6       30.29R
RUSSELL        CLEAR     39  30  70 NE7       30.27R
$$

KSZ061>065-074>080-084>089-190500-
SOUTHWEST KANSAS

CITY           SKY/WX    TMP DP  RH WIND       PRES   REMARKS
DODGE CITY     CLEAR     41  24  51 NE8       30.27R
GARDEN CITY    CLEAR     46  18  32 NE9       30.27R
GREAT BEND     CLEAR     42  28  57 N6        30.29R
LIBERAL        CLEAR     44  16  32 N3        30.29R
$$

KSZ066>073-081>083-090>101-190500-
SOUTHEAST KANSAS

CITY           SKY/WX    TMP DP  RH WIND       PRES   REMARKS
CHANUTE        CLEAR     42  30  62 NW7       30.24R
COFFEYVILLE    CLEAR     44  30  57 NW7       30.24R
HUTCHINSON     CLEAR     42  30  62 N8        30.27R
MEDICINE LODGE   N/A     47  29  49 NE8       30.27R
NEWTON         CLEAR     36  26  67 N9        30.27R
PARSONS        PTCLDY    40  30  67 N6        30.25R
WICHITA INTL   CLEAR     48  30  49 N10       30.25R
WICHITA JABRA  CLEAR     38  28  67 N8        30.25R
WINFIELD       CLEAR     42  29  59 N6        30.27R
$$

KSZ007>012-019>026-033>040-048>060-102>105-190500-
NORTHEAST KANSAS

CITY           SKY/WX    TMP DP  RH WIND       PRES   REMARKS
CONCORDIA      CLEAR     37  26  64 N5        30.27R
EMPORIA        CLEAR     39  26  59 N10       30.26R WCI  32
LAWRENCE       CLEAR     33  26  75 NW9       30.25R
MANHATTAN      CLEAR     38  26  62 W3        30.27R
OLATHE IND     CLEAR     37  26  64 NW8       30.24R
OLATHE EXE     CLEAR     36  25  64 NW7       30.22R
SALINA         PTCLDY    44  30  57 N7        30.29R
TOPEKA BILLARD CLEAR     36  27  69 NW7       30.26R
TOPEKA FORBES  CLEAR     38  26  62 NW8       30.25R
$$



USA.gov is the U.S. government's official web portal to all federal, state and local government web resources and services.